User: anonymous   Login
Location: Unspecified
(0.0000°N, 0.0000°E)
Time: 13:28:52
(UTC+00:00)
Language:

AO-Echo - Orbit

View from above orbital plane
View from above orbital plane
View from above satellite
View from above satellite

Ground track
Ground track

The orbit data is extracted from the following two-line orbital elements,

1 28375U 04025K   21015.68800178  .00000015  00000-0  18113-4 0  9997
2 28375  98.4508 309.9406 0081486 302.6094  56.7248 14.41988521870328
Epoch (UTC): 15 January 2021 16:30:43
Eccentricity: 0.0081486
inclination: 98.4508°
perigee height: 694 km
apogee height: 810 km
right ascension of ascending node: 309.9406°
argument of perigee: 302.6094°
revolutions per day: 14.41988521
mean anomaly at epoch: 56.7248°
orbit number at epoch: 87032

The dashed part of the orbit path shows where the satellite is in the earth's shadow,  

DLR